ROMMA est une association bénévole à but non lucratif. Votre soutien est indispensable : ADHERER à ROMMA ou FAIRE un DON

Crêts du Salève - (74, Haute-Savoie)

Salève (1270 m)   Longitude: 6° 10' 28'' E   Latitude: 46° 7' 42'' N Station romma n°73
 

Détail journalier du     <<     >>

Température Humidité Vent Dir Rafale Dir. rafale Ensol.
Heure (°C) (%) (km/h) (km/h) (min)
01:00 5.33919SSO29SSO0
02:00 5.33923SSO37SSO0
03:00 4.94429SO40SO0
04:00 4.34827SSO40SSO0
05:00 3.95130SO40SO0
06:00 3.35333SSO44SSO0
07:00 3.06031SO44SO0
08:00 1.87131SO44SO0
09:00 1.87327SO40SO0
10:00 1.97417SO26SO50
11:00 1.37812SO26SO50
12:00 1.67132SO48SO60
13:00 1.17833SO48OSO60
14:00 1.28239SO64SO60
15:00 1.18641SO58SSO50
16:00 2.87122SO47SO40
17:00 4.26125SSO52S0
18:00 5.45338S56S0
19:00 5.15236S56S0
20:00 5.45133S52S0
21:00 6.34329S60SSE0
22:00 6.74038S56S0
23:00 7.13935S50S0
minuit 7.43734S47S0

Graphique du 02-01-2020

 

Serveur OMMA